{"data":{"norad_id":47638,"intl_designator":"2021-012U","name":"STARLINK-2015","alt_names":[],"object_type":"PAYLOAD","status":"ACTIVE","operator":null,"country":"US","launch_date":"2021-02-16","launch_site_code":"AFETR","launch_vehicle":null,"mission":null,"orbit_class":"UNKNOWN","rcs_meters":null,"size_class":null,"mass_kg":null,"dimensions":null,"purposes":["comms"],"wikipedia_slug":null,"has_3d_model":false,"image_url":null,"decayed_at":null,"tle_current":{"epoch":"2026-05-24T23:10:12.302688Z","epoch_age_seconds":88408,"freshness":"FRESH","line1":"1 47638U 21012U   26144.96542017  .00035736  00000+0  10893-2 0  9991","line2":"2 47638  53.1590 337.5756 0001933 227.4131 132.6708 15.33647180293048","mean_motion":15.3364718,"eccentricity":0.0001933,"inclination_deg":53.159,"raan_deg":337.5756,"arg_perigee_deg":227.4131,"mean_anomaly_deg":132.6708,"bstar":0.0010893,"rev_number":29304,"period_min":93.89382504521,"perigee_km":463.61892801761,"apogee_km":466.26446224115,"semimajor_km":6843.0786951294,"source":"CELESTRAK","updated_at":"2026-05-25T13:38:16.561029Z"}}}